DW6885 Weather Reports


Display with metric or nautical units.
time (UTC)temp
F
wind
direction
speed
MPH
gust
MPH
rain 1hr
in
rain 24hr
in
rain mn
in
humidity
%
barometer
mb
20160929203040 0 0.0 0.0 0.00 0.00 0.00 1030.9
20160929202521 62 5 0.0 3.0 0.00 0.39 0.00 63 1030.9
20160929201517 0 0.0 0.0 0.00 0.00 0.00 1030.8
20160929200107 61 277 4.0 4.0 0.00 0.00 0.00 63 1030.9
20160929195523 62 3 0.0 5.0 0.00 0.39 0.00 65 1030.8
20160929194521 62 12 2.0 5.0 0.00 0.39 0.00 66 1030.7
20160929194515 0 0.0 0.0 0.00 0.00 0.00 1030.7
20160929193054 61 217 1.0 6.0 0.00 0.00 0.00 66 1030.6
20160929192521 62 324 2.0 5.0 0.00 0.39 0.00 63 1030.9
20160929191525 62 189 1.0 7.0 0.00 0.00 0.00 66 1031.0
20160929190030 61 50 0.0 8.0 0.00 0.00 0.00 67 1031.2
20160929185523 61 315 1.0 8.0 0.00 0.39 0.00 66 1031.1
20160929184522 61 167 2.0 8.0 0.00 0.39 0.00 70 1031.1
20160929184518 61 113 0.0 5.0 0.00 0.00 0.00 68 1031.0
20160929183013 61 150 1.0 8.0 0.00 0.00 0.00 68 1031.1
20160929181515 61 266 1.0 8.0 0.00 0.00 0.00 66 1031.2
20160929180022 0 0.0 0.0 0.00 0.00 0.00 1031.1
20160929175521 60 1 0.0 5.0 0.00 0.39 0.00 67 1031.2
20160929174539 0 0.0 0.0 0.00 0.00 0.00 1031.2
20160929174519 60 15 1.0 5.0 0.00 0.39 0.00 67 1031.2
20160929173016 59 317 2.0 8.0 0.00 0.00 0.00 67 1031.4
20160929172518 60 207 2.0 5.0 0.00 0.39 0.00 67 1031.4
20160929171513 59 55 2.0 8.0 0.00 0.00 0.00 66 1031.4
20160929170036 59 210 2.0 5.0 0.00 0.00 0.00 69 1031.7
20160929164522 57 86 0.0 4.0 0.00 0.00 0.00 74 1031.5
20160929163023 58 318 1.0 5.0 0.00 0.00 0.00 70 1031.5
20160929161513 58 298 2.0 6.0 0.00 0.00 0.00 71 1032.0
20160929160521 57 74 1.0 6.0 0.00 0.39 0.00 73 1031.7
20160929160022 57 86 0.0 6.0 0.00 0.00 0.00 76 1031.7
20160929155522 56 324 1.0 6.0 0.00 0.39 0.00 74 1031.8
20160929154519 56 68 1.0 6.0 0.00 0.39 0.00 76 1031.9
20160929154516 56 102 1.0 9.0 0.00 0.00 0.00 74 1031.8
20160929152523 55 185 1.0 6.0 0.00 0.39 0.00 77 1031.6
20160929152513 55 278 1.0 7.0 0.00 0.00 0.00 77 1031.6
20160929151516 54 323 1.0 6.0 0.00 0.39 0.00 78 1031.4
20160929151016 54 63 0.0 11.0 0.00 0.00 0.00 77 1031.4
20160929145513 53 252 1.0 7.0 0.00 0.00 0.00 80 1031.5
20160929144516 53 211 2.0 5.0 0.00 0.39 0.00 80 1031.7
20160929144021 52 185 1.0 9.0 0.00 0.00 0.00 80 1031.7
20160929143516 53 323 0.0 5.0 0.00 0.39 0.00 81 1031.7
20160929142516 52 43 0.0 3.0 0.00 0.39 0.00 84 1031.6
20160929141517 51 79 1.0 8.0 0.00 0.39 0.00 84 1031.5
20160929141014 51 84 1.0 10.0 0.00 0.00 0.00 84 1031.5
20160929140520 51 88 2.0 10.0 0.00 0.39 0.00 85 1031.5
20160929135518 50 225 1.0 9.0 0.00 0.00 0.00 85 1031.4
20160929134017 49 11 0.0 10.0 0.00 0.00 0.00 85 1031.6
20160929133515 50 25 1.0 10.0 0.00 0.39 0.00 86 1031.5
20160929132513 49 160 1.0 14.0 0.00 0.00 0.00 85 1031.4
20160929131517 49 221 2.0 12.0 0.00 0.39 0.00 86 1031.4
20160929131012 48 40 2.0 10.0 0.00 0.00 0.00 86 1031.4
20160929130519 49 146 1.0 12.0 0.00 0.39 0.00 87 1031.3
20160929125519 48 311 1.0 12.0 0.00 0.39 0.00 88 1031.4
20160929125515 48 42 0.0 8.0 0.00 0.00 0.00 88 1031.3
20160929124013 47 281 1.0 11.0 0.00 0.00 0.00 90 1031.3
20160929122523 46 244 0.0 4.0 0.00 0.00 0.00 91 1031.0
20160929122516 47 242 1.0 3.0 0.00 0.39 0.00 92 1030.9
20160929121516 47 316 0.0 3.0 0.00 0.39 0.00 93 1030.8
20160929121022 46 335 1.0 9.0 0.00 0.00 0.00 93 1030.9
20160929115516 46 348 0.0 4.0 0.00 0.00 0.00 95 1030.7
20160929114018 45 165 0.0 3.0 0.00 0.00 0.00 96 1030.7
20160929113516 46 9 1.0 3.0 0.00 0.39 0.00 96 1030.5
20160929112512 45 20 0.0 5.0 0.00 0.00 0.00 96 1030.4
20160929111519 45 295 0.0 3.0 0.00 0.39 0.00 96 1030.0
20160929111015 45 238 0.0 3.0 0.00 0.00 0.00 96 1029.9
20160929110519 46 273 0.0 2.0 0.00 0.39 0.00 96 1029.9
20160929105512 45 273 0.0 2.0 0.00 0.00 0.00 96 1029.8
20160929104519 46 298 0.0 0.0 0.00 0.39 0.00 96 1029.8
20160929104515 45 273 0.0 2.0 0.00 0.00 0.00 96 1029.7
20160929103518 46 164 0.0 1.0 0.00 0.39 0.00 96 1029.8
20160929102518 46 303 0.0 1.0 0.00 0.39 0.00 96 1029.7
20160929101518 46 303 0.0 1.0 0.00 0.39 0.00 96 1029.8
20160929101016 46 303 0.0 0.0 0.00 0.00 0.00 96 1029.8
20160929095522 47 303 0.0 1.0 0.00 0.39 0.00 95 1029.5
20160929095513 46 303 0.0 0.0 0.00 0.00 0.00 95 1029.5
20160929094017 47 303 0.0 0.0 0.00 0.00 0.00 95 1029.2
20160929093520 48 303 0.0 2.0 0.00 0.39 0.00 95 1029.1
20160929092525 47 303 0.0 3.0 0.00 0.00 0.00 95 1029.1
20160929092523 48 303 0.0 2.0 0.00 0.39 0.00 95 1029.1
20160929090814 48 22 0.0 2.0 0.00 0.00 0.00 94 1029.1
20160929085621 49 284 0.0 2.0 0.00 0.00 0.00 94 1029.1
20160929083815 49 49 0.0 4.0 0.00 0.00 0.00 94 1028.7
20160929082436 50 69 0.0 4.0 0.00 0.00 0.00 94 1028.7
20160929081023 50 257 0.0 3.0 0.00 0.00 0.00 94 1028.4
20160929075555 50 228 0.0 4.0 0.00 0.01 0.00 94 1028.1
20160929074525 51 341 1.0 3.0 0.00 0.39 0.00 94 1028.1
20160929073715 51 329 0.0 8.0 0.00 0.01 0.00 94 1028.1
20160929072526 51 13 0.0 11.0 0.00 0.01 0.00 94 1028.0
20160929071041 51 344 0.0 3.0 0.00 0.01 0.00 95 1027.9
20160929065622 51 225 0.0 4.0 0.00 0.01 0.00 95 1027.8
20160929064020 51 336 0.0 8.0 0.00 0.01 0.00 94 1027.7
20160929062046 51 16 0.0 6.0 0.00 0.01 0.00 94 1027.7
20160929061523 51 57 1.0 9.0 0.00 0.39 0.00 93 1027.7
20160929060620 51 5 0.0 15.0 0.00 0.01 0.00 94 1027.8
20160929055622 51 115 1.0 6.0 0.00 0.01 0.00 94 1028.0
20160929053620 51 321 1.0 8.0 0.00 0.01 0.00 94 1027.9
20160929052521 52 281 0.0 10.0 0.00 0.39 0.00 94 1028.1
20160929052015 51 280 0.0 10.0 0.00 0.01 0.00 94 1028.1
20160929050617 51 277 1.0 7.0 0.00 0.01 0.00 94 1028.2
20160929044919 51 205 1.0 6.0 0.00 0.01 0.00 94 1028.1
20160929043552 52 95 0.0 7.0 0.00 0.01 0.00 95 1028.0
20160929042524 52 296 1.0 3.0 0.00 0.39 0.00 95 1027.9
20160929042058 51 315 0.0 3.0 0.00 0.01 0.00 95 1027.9
20160929041532 52 355 0.0 3.0 0.00 0.39 0.00 95 1027.6
20160929040514 51 249 0.0 7.0 0.00 0.01 0.00 95 1027.7
20160929035524 52 2 1.0 8.0 0.00 0.39 0.01 95 1027.6
20160929035013 51 82 0.0 6.0 0.00 0.01 0.01 95 1027.6
20160929034519 52 94 0.0 8.0 0.00 0.39 0.01 95 1027.7
20160929033516 52 53 0.0 8.0 0.00 0.39 0.01 94 1027.8
20160929033513 51 105 0.0 5.0 0.00 0.01 0.01 94 1027.8
20160929032518 52 116 0.0 8.0 0.00 0.39 0.01 94 1027.9
20160929032013 51 175 0.0 2.0 0.00 0.01 0.01 94 1027.9
20160929030516 52 281 1.0 3.0 0.00 0.39 0.01 94 1027.9
20160929025520 52 316 1.0 3.0 0.00 0.39 0.01 94 1027.8
20160929025015 51 275 0.0 8.0 0.00 0.01 0.01 94 1027.7
20160929024516 51 304 0.0 3.0 0.00 0.39 0.01 94 1027.7
20160929023520 51 18 0.0 3.0 0.00 0.39 0.01 95 1027.4
20160929022015 50 277 0.0 2.0 0.00 0.01 0.01 95 1027.3
20160929020518 51 358 0.0 5.0 0.00 0.39 0.01 94 1027.3
20160929020516 50 355 1.0 8.0 0.00 0.01 0.01 95 1027.3
20160929015517 51 171 0.0 5.0 0.00 0.39 0.01 94 1027.3
20160929015018 50 176 0.0 9.0 0.00 0.01 0.01 94 1027.2
20160929014519 51 151 1.0 5.0 0.00 0.39 0.01 94 1027.1
20160929013518 51 270 1.0 5.0 0.00 0.39 0.01 94 1026.9
20160929013513 51 320 1.0 8.0 0.00 0.01 0.01 94 1027.0
20160929012519 51 297 0.0 5.0 0.00 0.39 0.01 94 1026.8
20160929012016 51 305 0.0 3.0 0.00 0.01 0.01 94 1026.6
20160929010513 51 142 0.0 5.0 0.00 0.01 0.01 94 1026.6
20160929005520 51 350 0.0 2.0 0.00 0.39 0.01 94 1026.7
20160929005015 51 291 0.0 6.0 0.00 0.01 0.01 94 1026.7
20160929003521 51 329 0.0 3.0 0.00 0.39 0.01 94 1026.5
20160929003512 51 329 0.0 2.0 0.00 0.01 0.01 94 1026.5
20160929002016 50 329 0.0 5.0 0.00 0.01 0.01 94 1026.3
20160929001518 51 140 0.0 3.0 0.00 0.39 0.01 94 1026.2
20160929000512 50 240 0.0 5.0 0.00 0.01 0.01 94 1026.1
20160928235015 50 257 0.0 4.0 0.00 0.01 0.01 94 1025.8
20160928234521 51 273 0.0 2.0 0.00 0.39 0.01 94 1025.6
20160928233522 51 272 0.0 1.0 0.00 0.39 0.01 93 1025.5
20160928233514 50 267 0.0 4.0 0.00 0.01 0.01 93 1025.5
20160928232521 51 284 0.0 1.0 0.00 0.39 0.01 94 1025.3
20160928232020 50 208 0.0 4.0 0.00 0.01 0.01 94 1025.2
20160928230521 51 329 0.0 1.0 0.00 0.39 0.01 94 1024.9
20160928230516 50 315 0.0 3.0 0.00 0.01 0.01 94 1025.0
20160928225013 50 275 0.0 4.0 0.00 0.01 0.01 94 1025.0
20160928224520 51 301 0.0 2.0 0.00 0.39 0.01 93 1025.1
20160928223518 51 355 0.0 2.0 0.00 0.39 0.01 94 1025.1
20160928223514 51 355 0.0 1.0 0.00 0.01 0.01 94 1025.1
20160928222519 51 288 0.0 2.0 0.00 0.39 0.01 93 1025.1
20160928222014 51 286 0.0 3.0 0.00 0.01 0.01 93 1025.2
20160928221521 51 203 0.0 2.0 0.00 0.39 0.01 93 1025.1
20160928220519 51 329 0.0 3.0 0.00 0.39 0.01 93 1025.0
20160928220517 51 258 0.0 6.0 0.00 0.01 0.01 93 1025.0
20160928215521 51 324 0.0 3.0 0.00 0.39 0.01 93 1025.0
20160928215017 51 228 0.0 4.0 0.00 0.01 0.01 93 1025.0
20160928214521 51 295 1.0 3.0 0.00 0.39 0.01 93 1024.9
20160928213525 51 246 0.0 6.0 0.00 0.01 0.01 93 1024.8
20160928213519 51 238 1.0 3.0 0.00 0.39 0.01 93 1024.8
20160928212018 51 313 0.0 5.0 0.00 0.01 0.01 93 1024.7
20160928210518 51 271 0.0 3.0 0.00 0.39 0.01 92 1024.7
20160928210515 51 271 0.0 3.0 0.00 0.01 0.01 93 1024.7
20160928205522 51 104 0.0 3.0 0.00 0.39 0.01 92 1024.6
20160928205014 51 93 0.0 3.0 0.00 0.01 0.01 93 1024.6
20160928204520 52 352 0.0 3.0 0.00 0.39 0.01 93 1024.7
20160928203518 52 80 0.0 3.0 0.00 0.39 0.01 93 1024.7
20160928203513 51 78 1.0 6.0 0.00 0.01 0.01 93 1024.8